Home   Weather   Hall Beach   Past weeks
Flag for Canada

Past Weather in Hall Beach, Nunavut, Canada — Yesterday and Last 2 Weeks

Now
19 °F

Passing clouds.


Feels Like: 19 °F
Forecast: 31 / 18 °F
Wind: No wind

Location: Hall Beach

Current Time: Oct 19, 2019 at 3:51:52 am

Latest Report: Oct 19, 2019 at 3:00 am


Visibility: 9 mi

Pressure: 30.13 "Hg

Humidity: 100%

Dew Point: 19 °F

Location of Hall BeachLocation

Past Weather in Hall Beach — Graph

°F

Hall Beach Temperature Yesterday

Maximum temperature yesterday: 19 °F (at 12:00 am)
Minimum temperature yesterday: 12 °F (at 10:00 pm)
Average temperature yesterday: 16 °F

High & Low Weather Summary for the Past Weeks

 TemperatureHumidityPressure
High37 °F (Oct 9, 2:00 pm)100% (Oct 4, 8:00 am)30.18 "Hg (Oct 4, 8:00 am)
Low12 °F (Oct 18, 10:00 pm)68% (Oct 17, 2:18 am)29.28 "Hg (Oct 10, 3:00 pm)
Average25 °F91%29.82 "Hg
* Reported Oct 4 2:00 am — Oct 19 2:00 am, Hall Beach. Weather by CustomWeather, © 2019

Note: Actual official high and low records may vary slightly from our data, if they occured in-between our weather recording intervals... More about our weather records

Advertising

Hall Beach Weather History for the Previous 24 Hours

Scroll right to see more
 ConditionsComfort  
Time TempWeatherWind HumidityBarometerVisibility
2:00 am
Sat, Oct 19
18 °FMostly cloudy.No wind100%30.13 "Hg9 mi
1:38 am18 °FPassing clouds.2 mph100%30.14 "Hg7 mi
1:19 am16 °FIce fog.2 mph100%30.13 "Hg1 mi
1:00 am16 °FIce fog.No wind100%30.14 "Hg1 mi
12:38 am16 °FIce fog.No wind100%30.14 "Hg1 mi
12:00 am16 °FIce fog.5 mph100%30.14 "Hg1 mi
11:58 pm
Fri, Oct 18
16 °FIce fog.5 mph100%30.14 "Hg1 mi
11:33 pm14 °FMostly cloudy.6 mph100%30.13 "Hg9 mi
11:00 pm14 °FPassing clouds.9 mph100%30.13 "Hg9 mi
10:00 pm12 °FPassing clouds.9 mph92%30.13 "Hg9 mi
9:00 pm14 °FClear.10 mph100%30.12 "Hg9 mi
8:00 pm14 °FPassing clouds.12 mph100%30.11 "Hg10 mi
7:00 pm14 °FPartly cloudy.8 mph92%30.11 "Hg10 mi
6:00 pm16 °FPartly cloudy.12 mph93%30.09 "Hg10 mi
5:00 pm18 °FBroken clouds.15 mph86%30.07 "Hg10 mi
4:00 pm16 °FPartly sunny.15 mph93%30.06 "Hg10 mi
3:00 pm18 °FPartly sunny.15 mph86%30.05 "Hg10 mi
2:00 pm18 °FBroken clouds.17 mph86%30.04 "Hg15 mi
1:00 pm16 °FBroken clouds.16 mph93%30.03 "Hg15 mi
12:00 pm16 °FBroken clouds.18 mph93%30.02 "Hg15 mi
11:00 am16 °FScattered clouds.18 mph86%30.01 "Hg15 mi
10:00 am16 °FLow level haze.18 mph86%30.01 "Hg15 mi
9:00 am14 °FLow level haze.21 mph92%30.00 "Hg15 mi
8:00 am16 °FPassing clouds.21 mph86%29.98 "Hg15 mi
7:00 am16 °FPassing clouds.21 mph93%29.98 "Hg9 mi
6:00 am16 °FOvercast.22 mph93%29.98 "Hg9 mi
5:00 am16 °FOvercast.20 mph86%29.97 "Hg9 mi
4:00 am16 °FOvercast.22 mph93%29.96 "Hg9 mi
3:00 am16 °FOvercast.22 mph93%29.96 "Hg9 mi
Weather by CustomWeather, © 2019

See weather overview